TOM6GB GCLP-EGCC

Flight info

Callsign TOM6GB
Flight time N/A
Altitude 40000
Route VASTO8A VASTO DCT NIDEB DCT TIGGI DCT BUSEN DCT PINEK DCT KORUL DCT EBOMO DCT RUSIB DCT NOZHU/N0488F410 DCT SHIRI DCT TOJAQ DCT EPACE DCT ACCOP DCT MOCQO P16 AXCIS AXCIS1M
Aircraft B789/H-SDE1E2E3FGHIJ2J3J4J5M1RWXY/LB1D1

Departure

Time 2026-05-05 21:34
Airport Gran Canaria Airport (GCLP)

Arrival

Time N/A
Airport Manchester Airport (EGCC)
Time Latitude Longitude Altitude Speed Heading
2026-05-05 21:11 27.93212 -15.39087 68 ft 0 kts 285°
2026-05-05 21:26 27.93209 -15.39072 58 ft 4 kts 284°
2026-05-05 21:26 27.93201 -15.39043 58 ft 4 kts 279°
2026-05-05 21:27 27.93202 -15.39015 58 ft 4 kts 244°
2026-05-05 21:27 27.93218 -15.38992 58 ft 4 kts 207°
2026-05-05 21:27 27.93228 -15.38987 58 ft 1 kts 201°
2026-05-05 21:27 27.93229 -15.38987 58 ft 0 kts 201°
2026-05-05 21:30 27.93221 -15.38991 58 ft 3 kts 201°
2026-05-05 21:30 27.93189 -15.39005 60 ft 8 kts 201°
2026-05-05 21:30 27.93110 -15.39040 65 ft 16 kts 201°
2026-05-05 21:30 27.92983 -15.39097 68 ft 23 kts 202°
2026-05-05 21:31 27.92812 -15.39177 66 ft 30 kts 210°
2026-05-05 21:31 27.92614 -15.39292 70 ft 33 kts 200°
2026-05-05 21:31 27.92442 -15.39265 86 ft 22 kts 119°
2026-05-05 21:31 27.92374 -15.39225 86 ft 8 kts 190°
2026-05-05 21:32 27.92297 -15.39253 87 ft 16 kts 200°
2026-05-05 21:32 27.92172 -15.39312 87 ft 23 kts 201°
2026-05-05 21:32 27.91997 -15.39385 91 ft 30 kts 199°
2026-05-05 21:32 27.91921 -15.39365 92 ft 0 kts 128°
2026-05-05 21:33 27.91911 -15.39346 94 ft 5 kts 113°
2026-05-05 21:33 27.91912 -15.39288 92 ft 10 kts 75°
2026-05-05 21:33 27.91956 -15.39207 89 ft 14 kts 40°
2026-05-05 21:34 27.92062 -15.39151 88 ft 30 kts 20°
2026-05-05 21:34 27.92511 -15.38958 84 ft 107 kts 21°
2026-05-05 21:34 27.93422 -15.38557 116 ft 166 kts 20°
2026-05-05 21:34 27.94478 -15.38104 970 ft 160 kts 20°
2026-05-05 21:35 27.95561 -15.37604 1336 ft 172 kts 22°
2026-05-05 21:35 27.96693 -15.37094 1719 ft 174 kts 20°
2026-05-05 21:35 27.97813 -15.36614 2616 ft 171 kts 20°
2026-05-05 21:35 27.98940 -15.36132 3386 ft 176 kts 20°
2026-05-05 21:36 28.00104 -15.35635 4113 ft 180 kts 20°
2026-05-05 21:36 28.01281 -15.35133 4875 ft 184 kts 21°
2026-05-05 21:36 28.02500 -15.34610 5558 ft 191 kts 20°
2026-05-05 21:36 28.03762 -15.34072 6243 ft 197 kts 20°
2026-05-05 21:37 28.05063 -15.33512 6881 ft 203 kts 20°
2026-05-05 21:37 28.06394 -15.32933 7534 ft 207 kts 19°
2026-05-05 21:37 28.07758 -15.32342 8190 ft 212 kts 18°
2026-05-05 21:37 28.09150 -15.31740 8861 ft 216 kts 18°
2026-05-05 21:38 28.10559 -15.31128 9538 ft 219 kts 18°
2026-05-05 21:38 28.11526 -15.30708 9973 ft 222 kts 18°
2026-05-05 21:38 28.12986 -15.30098 10543 ft 226 kts 15°
2026-05-05 21:38 28.14532 -15.29461 10793 ft 249 kts 11°
2026-05-05 21:39 28.16327 -15.28991 10963 ft 280 kts 11°
2026-05-05 21:39 28.18187 -15.28401 11752 ft 283 kts
2026-05-05 21:39 28.20113 -15.27831 12509 ft 289 kts
2026-05-05 21:39 28.22087 -15.27283 13302 ft 295 kts
2026-05-05 21:40 28.24101 -15.26717 14043 ft 302 kts
2026-05-05 21:40 28.26159 -15.26125 14751 ft 307 kts
2026-05-05 21:40 28.28246 -15.25524 15454 ft 312 kts
2026-05-05 21:40 28.30368 -15.24916 16153 ft 317 kts
2026-05-05 21:41 28.32516 -15.24267 16854 ft 325 kts 13°
2026-05-05 21:41 28.34491 -15.22895 17533 ft 340 kts 33°
2026-05-05 21:41 28.36465 -15.21395 18154 ft 342 kts 25°
2026-05-05 21:41 28.38519 -15.20005 18769 ft 346 kts 26°
2026-05-05 21:42 28.40566 -15.18500 19389 ft 352 kts 28°
2026-05-05 21:42 28.42599 -15.16924 19977 ft 356 kts 28°
2026-05-05 21:42 28.44672 -15.15356 20575 ft 360 kts 27°
2026-05-05 21:42 28.46782 -15.13798 21140 ft 364 kts 27°
2026-05-05 21:43 28.48914 -15.12214 21713 ft 368 kts 28°
2026-05-05 21:43 28.51062 -15.10600 22276 ft 372 kts 28°
2026-05-05 21:43 28.53234 -15.08966 22827 ft 377 kts 28°
2026-05-05 21:43 28.55405 -15.07341 23363 ft 381 kts 28°
2026-05-05 21:44 28.57631 -15.05675 23849 ft 385 kts 28°
2026-05-05 21:44 28.59873 -15.03992 24301 ft 388 kts 28°
2026-05-05 21:44 28.62134 -15.02293 24760 ft 391 kts 28°
2026-05-05 21:44 28.64415 -15.00580 25199 ft 394 kts 28°
2026-05-05 21:45 28.66715 -14.98853 25629 ft 398 kts 28°
2026-05-05 21:45 28.69032 -14.97111 26077 ft 401 kts 28°
2026-05-05 21:45 28.71367 -14.95354 26507 ft 404 kts 28°
2026-05-05 21:45 28.73721 -14.93582 26927 ft 407 kts 28°
2026-05-05 21:46 28.76091 -14.91798 27342 ft 410 kts 28°
2026-05-05 21:46 28.78481 -14.89997 27767 ft 413 kts 28°
2026-05-05 21:46 28.80887 -14.88184 28167 ft 416 kts 28°
2026-05-05 21:46 28.83313 -14.86353 28567 ft 420 kts 28°
2026-05-05 21:47 28.85756 -14.84509 28959 ft 423 kts 28°
2026-05-05 21:47 28.88217 -14.82651 29343 ft 426 kts 28°
2026-05-05 21:47 28.90696 -14.80778 29728 ft 429 kts 28°
2026-05-05 21:47 28.93193 -14.78890 30095 ft 432 kts 28°
2026-05-05 21:48 28.95708 -14.76987 30425 ft 435 kts 28°
2026-05-05 21:48 28.98236 -14.75073 30735 ft 437 kts 28°
2026-05-05 21:48 29.00777 -14.73148 31063 ft 440 kts 28°
2026-05-05 21:48 29.03334 -14.71211 31359 ft 442 kts 28°
2026-05-05 21:49 29.05907 -14.69260 31679 ft 445 kts 28°
2026-05-05 21:49 29.08490 -14.67300 31980 ft 447 kts 28°
2026-05-05 21:49 29.11091 -14.65325 32283 ft 450 kts 28°
2026-05-05 21:49 29.13705 -14.63339 32588 ft 452 kts 28°
2026-05-05 21:50 29.16332 -14.61342 32869 ft 455 kts 28°
2026-05-05 21:50 29.18972 -14.59333 33151 ft 457 kts 28°
2026-05-05 21:50 29.21563 -14.57361 33428 ft 460 kts 28°
2026-05-05 21:50 29.24299 -14.55278 33721 ft 462 kts 28°
2026-05-05 21:51 29.26983 -14.53232 33999 ft 465 kts 28°
2026-05-05 21:51 29.29643 -14.51203 34245 ft 467 kts 28°
2026-05-05 21:51 29.32344 -14.49141 34544 ft 467 kts 28°
2026-05-05 21:51 29.35051 -14.47074 34818 ft 468 kts 28°
2026-05-05 21:52 29.40478 -14.42927 35356 ft 469 kts 27°
2026-05-05 21:52 29.43194 -14.40848 35608 ft 470 kts 27°
2026-05-05 21:52 29.45918 -14.38762 35858 ft 471 kts 27°
2026-05-05 21:53 29.48644 -14.36674 36111 ft 472 kts 27°
2026-05-05 21:53 29.51376 -14.34580 36350 ft 472 kts 27°
2026-05-05 21:53 29.54113 -14.32480 36575 ft 473 kts 27°
2026-05-05 21:53 29.56851 -14.30378 36802 ft 474 kts 27°
2026-05-05 21:54 29.59596 -14.28270 37026 ft 475 kts 27°
2026-05-05 21:54 29.62344 -14.26157 37237 ft 476 kts 27°
2026-05-05 21:54 29.65097 -14.24040 37448 ft 477 kts 27°
2026-05-05 21:54 29.67853 -14.21919 37644 ft 477 kts 27°
2026-05-05 21:55 29.70616 -14.19791 37819 ft 478 kts 27°
2026-05-05 21:55 29.73382 -14.17659 38045 ft 479 kts 27°
2026-05-05 21:55 29.76150 -14.15524 38222 ft 480 kts 27°
2026-05-05 21:55 29.78928 -14.13380 38391 ft 481 kts 27°
2026-05-05 21:56 29.81709 -14.11232 38569 ft 482 kts 27°
2026-05-05 21:56 29.84493 -14.09080 38750 ft 482 kts 27°
2026-05-05 21:56 29.87282 -14.06924 38868 ft 483 kts 27°
2026-05-05 21:56 29.90072 -14.04764 39005 ft 484 kts 27°
2026-05-05 21:57 29.92870 -14.02598 39145 ft 485 kts 27°
2026-05-05 21:57 29.95670 -14.00427 39260 ft 486 kts 27°
2026-05-05 21:57 29.98477 -13.98251 39398 ft 486 kts 27°
2026-05-05 21:57 30.01285 -13.96072 39518 ft 487 kts 28°
2026-05-05 21:58 30.04097 -13.93888 39649 ft 488 kts 28°
2026-05-05 21:58 30.06913 -13.91699 39777 ft 488 kts 28°
2026-05-05 21:58 30.09733 -13.89506 39905 ft 489 kts 28°
2026-05-05 21:58 30.12555 -13.87310 40029 ft 490 kts 28°
2026-05-05 21:59 30.15386 -13.85106 40072 ft 492 kts 28°
2026-05-05 21:59 30.21071 -13.80672 40079 ft 492 kts 28°
2026-05-05 22:00 30.26734 -13.76251 40076 ft 490 kts 28°
2026-05-05 22:00 30.32382 -13.71837 40080 ft 490 kts 28°
2026-05-05 22:01 30.38018 -13.67423 40083 ft 489 kts 28°
2026-05-05 22:01 30.43648 -13.63009 40085 ft 488 kts 28°
2026-05-05 22:02 30.49264 -13.58601 40087 ft 488 kts 28°
2026-05-05 22:02 30.55091 -13.54710 40083 ft 483 kts 21°
2026-05-05 22:03 30.60970 -13.50995 40090 ft 485 kts 22°
2026-05-05 22:03 30.66906 -13.47289 40095 ft 484 kts 21°
2026-05-05 22:04 30.72827 -13.43565 40095 ft 484 kts 22°
2026-05-05 22:04 30.78752 -13.39843 40098 ft 484 kts 21°
2026-05-05 22:05 30.84679 -13.36111 40099 ft 484 kts 22°
2026-05-05 22:05 30.90597 -13.32379 40099 ft 483 kts 21°
2026-05-05 22:06 30.96508 -13.28648 40093 ft 483 kts 22°
2026-05-05 22:06 31.02415 -13.24912 40097 ft 483 kts 22°
2026-05-05 22:07 31.08327 -13.21169 40099 ft 483 kts 22°
2026-05-05 22:07 31.14228 -13.17427 40095 ft 482 kts 22°
2026-05-05 22:08 31.20111 -13.13692 40096 ft 480 kts 22°
2026-05-05 22:08 31.25976 -13.09963 40103 ft 480 kts 22°
2026-05-05 22:09 31.31851 -13.06221 40098 ft 481 kts 22°
2026-05-05 22:09 31.37716 -13.02481 40095 ft 479 kts 22°
2026-05-05 22:10 31.43573 -12.98742 40100 ft 480 kts 22°
2026-05-05 22:10 31.49386 -12.95022 40102 ft 479 kts 22°
2026-05-05 22:11 31.55231 -12.91281 40105 ft 479 kts 22°
2026-05-05 22:11 31.61074 -12.87533 40103 ft 479 kts 22°
2026-05-05 22:12 31.66909 -12.83785 40109 ft 478 kts 22°
2026-05-05 22:12 31.72730 -12.80041 40104 ft 477 kts 22°
2026-05-05 22:13 31.78548 -12.76293 40106 ft 476 kts 22°
2026-05-05 22:13 31.84349 -12.72551 40104 ft 475 kts 22°
2026-05-05 22:14 31.90145 -12.68807 40110 ft 475 kts 22°
2026-05-05 22:14 31.95933 -12.65062 40112 ft 474 kts 22°
2026-05-05 22:15 32.01713 -12.61317 40110 ft 473 kts 22°
2026-05-05 22:15 32.07479 -12.57576 40109 ft 473 kts 23°
2026-05-05 22:16 32.13243 -12.53831 40111 ft 472 kts 23°
2026-05-05 22:16 32.18992 -12.50089 40112 ft 472 kts 23°
2026-05-05 22:17 32.24733 -12.46348 40117 ft 471 kts 23°
2026-05-05 22:17 32.30466 -12.42607 40111 ft 471 kts 23°
2026-05-05 22:18 32.36201 -12.38859 40113 ft 471 kts 23°
2026-05-05 22:18 32.41932 -12.35108 40098 ft 470 kts 23°
2026-05-05 22:19 32.47653 -12.31358 40107 ft 469 kts 24°
2026-05-05 22:19 32.53362 -12.27610 40108 ft 469 kts 24°
2026-05-05 22:20 32.59030 -12.23884 40114 ft 469 kts 24°
2026-05-05 22:20 32.64735 -12.20128 40115 ft 469 kts 24°
2026-05-05 22:21 32.70429 -12.16373 40110 ft 468 kts 24°
2026-05-05 22:21 32.76116 -12.12619 40113 ft 467 kts 24°
2026-05-05 22:22 32.81802 -12.08859 40116 ft 468 kts 24°
2026-05-05 22:22 32.87486 -12.05094 40118 ft 467 kts 24°
2026-05-05 22:23 32.93167 -12.01326 40115 ft 467 kts 24°
2026-05-05 22:23 32.99041 -11.98292 40110 ft 456 kts
2026-05-05 22:24 33.05148 -11.96233 40119 ft 456 kts
2026-05-05 22:24 33.11251 -11.94158 40113 ft 456 kts 10°
2026-05-05 22:25 33.17340 -11.92080 40116 ft 452 kts 10°
2026-05-05 22:25 33.23356 -11.90033 40115 ft 448 kts 10°
2026-05-05 22:26 33.29365 -11.87980 40123 ft 450 kts 10°
2026-05-05 22:26 33.35393 -11.85919 40123 ft 450 kts 10°
2026-05-05 22:27 33.41411 -11.83858 40120 ft 449 kts 10°
2026-05-05 22:27 33.46405 -11.82145 40125 ft 449 kts 10°
2026-05-05 22:28 33.53382 -11.79750 40123 ft 449 kts 10°
2026-05-05 22:28 33.59377 -11.77687 40120 ft 448 kts 10°
2026-05-05 22:29 33.65364 -11.75626 40128 ft 448 kts 10°
2026-05-05 22:29 33.70379 -11.73896 40125 ft 448 kts 10°
2026-05-05 22:30 33.76376 -11.71825 40123 ft 449 kts 10°
2026-05-05 22:30 33.82368 -11.69752 40125 ft 448 kts 10°
2026-05-05 22:31 33.88356 -11.67679 40129 ft 448 kts 10°
2026-05-05 22:31 33.94344 -11.65602 40129 ft 448 kts 10°
2026-05-05 22:32 34.00292 -11.63535 40134 ft 447 kts 10°
2026-05-05 22:32 34.06315 -11.61440 40129 ft 447 kts 11°
2026-05-05 22:33 34.12254 -11.59371 40125 ft 447 kts 11°
2026-05-05 22:33 34.18227 -11.57287 40132 ft 447 kts 11°
2026-05-05 22:34 34.24189 -11.55204 40132 ft 446 kts 11°
2026-05-05 22:34 34.30150 -11.53118 40131 ft 446 kts 11°
2026-05-05 22:35 34.36116 -11.51027 40130 ft 446 kts 11°
2026-05-05 22:35 34.42076 -11.48935 40133 ft 446 kts 11°
2026-05-05 22:36 34.48031 -11.46842 40130 ft 445 kts 11°
2026-05-05 22:36 34.53978 -11.44749 40130 ft 445 kts 11°
2026-05-05 22:37 34.59930 -11.42650 40133 ft 446 kts 11°
2026-05-05 22:37 34.65888 -11.40547 40135 ft 446 kts 11°
2026-05-05 22:38 34.71833 -11.38444 40138 ft 444 kts 11°
2026-05-05 22:38 34.77761 -11.36345 40140 ft 443 kts 11°
2026-05-05 22:39 34.83681 -11.34246 40131 ft 443 kts 11°
2026-05-05 22:39 34.89608 -11.32141 40132 ft 445 kts 11°
2026-05-05 22:40 34.95548 -11.30026 40093 ft 444 kts 10°
2026-05-05 22:40 35.01520 -11.27903 40129 ft 450 kts 11°
2026-05-05 22:41 35.07533 -11.25753 40139 ft 450 kts 10°
2026-05-05 22:41 35.13537 -11.23609 40134 ft 449 kts 10°
2026-05-05 22:42 35.19532 -11.21463 40136 ft 449 kts 10°
2026-05-05 22:42 35.25515 -11.19318 40138 ft 448 kts 10°
2026-05-05 22:43 35.31499 -11.17170 40139 ft 448 kts 10°
2026-05-05 22:43 35.37483 -11.15018 40138 ft 448 kts 10°
2026-05-05 22:44 35.43423 -11.12879 40135 ft 448 kts 10°
2026-05-05 22:44 35.49411 -11.10720 40136 ft 448 kts 10°
2026-05-05 22:45 35.55398 -11.08557 40137 ft 449 kts 10°
2026-05-05 22:45 35.61391 -11.06388 40141 ft 449 kts 10°
2026-05-05 22:46 35.67381 -11.04218 40135 ft 449 kts 10°
2026-05-05 22:46 35.73365 -11.02046 40137 ft 448 kts 10°
2026-05-05 22:47 35.79351 -10.99870 40141 ft 448 kts 10°
2026-05-05 22:47 35.85327 -10.97694 40135 ft 448 kts 10°
2026-05-05 22:48 35.91296 -10.95518 40137 ft 447 kts 10°
2026-05-05 22:48 35.97254 -10.93342 40135 ft 447 kts 10°
2026-05-05 22:49 36.03233 -10.91256 40141 ft 447 kts
2026-05-05 22:49 36.09230 -10.89151 40137 ft 448 kts
2026-05-05 22:50 36.15217 -10.87040 40139 ft 447 kts
2026-05-05 22:50 36.21200 -10.84937 40130 ft 448 kts
2026-05-05 22:51 36.27153 -10.82834 40135 ft 448 kts
2026-05-05 22:51 36.33142 -10.80719 40132 ft 448 kts
2026-05-05 22:52 36.39133 -10.78598 40132 ft 448 kts
2026-05-05 22:52 36.45116 -10.76477 40135 ft 447 kts
2026-05-05 22:53 36.51091 -10.74355 40131 ft 446 kts
2026-05-05 22:53 36.57055 -10.72234 40134 ft 446 kts
2026-05-05 22:54 36.63028 -10.70106 40130 ft 447 kts
2026-05-05 22:54 36.69005 -10.67973 40136 ft 446 kts
2026-05-05 22:55 36.74976 -10.65840 40133 ft 446 kts
2026-05-05 22:55 36.80940 -10.63705 40139 ft 446 kts
2026-05-05 22:56 36.86894 -10.61570 40141 ft 445 kts